Location: Napier
(39.4830°S, 176.9170°E)
Time: 01:48:18
(UTC+12:00)

Lacrosse 4 Rocket - Pass Details

Date: 15 August 2020
Orbit: 544 x 615 km, 68.0° (Epoch: 20 September)

Event Time Altitude Azimuth Distance (km) Brightness Sun altitude
Rises 18:37:04 0° 198° (SSW) 2,914 5.2 -12.6°
Reaches altitude 10° 18:39:35 10° 187° (S) 2,006 4.2 -13.1°
Maximum altitude 18:43:35 30° 125° (SE) 1,131 2.4 -13.9°
Enters shadow 18:45:23 22° 86° (E) 1,353 2.7 -14.2°
